Location: Great Malvern
(52.1167°N, 2.3167°W)
Time: 06:19:24
(UTC+00:00)

Cosmos 2150 Rocket - Pass Details

Date: 18 September 2020
Orbit: 748 x 808 km, 74.0° (Epoch: 21 October)

Event Time Altitude Azimuth Distance (km) Brightness Sun altitude
Rises 20:27:58 0° 203° (SSW) 3,268 7.2 -20.0°
Reaches altitude 10° 20:30:19 10° 203° (SSW) 2,352 6.4 -20.4°
Maximum altitude 20:35:42 90° 204° (SSW) 807 4.0 -21.1°
Drops below altitude 10° 20:41:11 10° 25° (NNE) 2,398 6.6 -21.8°
Sets 20:43:37 0° 26° (NNE) 3,336 7.4 -22.1°
